Volver al catálogo

STARLINK-6160

ActivoComunicacionesVLEO
NORAD 56382·PAYLOAD·🇺🇸 United States

Lanzado May 4, 2023 desde Cape Canaveral Space Force Station

Loading…

Próximos Pases (próximas 24 horas)

TLE

ActualizadoSource: CelesTrak SupGP

Época: Sep 14, 2026, 21:06 UTC

1 56382C 23061J   26257.87965278  .00015412  00000+0  55866-3 0  2572
2 56382  42.9995 209.6861 0001003 250.5666  16.0717 15.27545993    13

Sigue STARLINK-6160 en tiempo real con AllMySat

Download on the App Store